Weather History for Dubrovnik / Cilipi, Croatia

Change the Weather History Date:

Friday, February 14, 2014

  Actual Average Record
Temperature  
Mean Temperature 48 °F -  
Max Temperature 54 °F - - ()
Min Temperature 41 °F - - ()
Degree Days  
Heating Degree Days 18    
Moisture  
Dew Point 43 °F    
Average Humidity 78    
Maximum Humidity 100    
Minimum Humidity 43    
Precipitation  
Precipitation 0.24 in - - ()
Sea Level Pressure  
Sea Level Pressure 29.84 in    
Wind  
Wind Speed 12 mph ()    
Max Wind Speed 25 mph    
Max Gust Speed 39 mph    
Visibility 7.2 miles    
Events Rain    
T = Trace of Precipitation, MM = Missing Value Source: Averaged Metar Reports

Daily Weather History Graph

Daily Weather History Graph

Search for Another Location

Airport:

Trip Planner

Search our weather history database for the weather conditions in past years. The results will help you decide how hot, cold, wet, or windy it might be!

Date:

Astronomy

Feb. 14, 2014 Rise Set
Actual Time 6:45 AM CET 5:17 PM CET
Civil Twilight 6:16 AM CET 5:46 PM CET
Nautical Twilight 5:43 AM CET 6:19 PM CET
Astronomical Twilight 5:10 AM CET 6:52 PM CET
Moon 5:05 PM CET (2/14) 6:02 AM CET (2/14)
Length of Visible Light 11h 29m
Length of Day
10h 31m
Full, 100% of the Moon is Illuminated
Feb 14
Full
Feb 15
Full
Feb 22
Last Quarter
Mar 1
New
Mar 8
First Quarter

Hourly Weather History & Observations

Time (CET) Temp. Windchill Dew Point Humidity Pressure Visibility Wind Dir Wind Speed Gust Speed Precip Events Conditions
12:00 AM 44.6 °F 39.2 °F 37.4 °F 76% 29.89 in 6.2 mi East 10.4 mph - N/A   Partly Cloudy
12:30 AM 46.4 °F 41.1 °F 39.2 °F 76% 29.86 in 6.2 mi East 11.5 mph - N/A   Partly Cloudy
1:00 AM 46 °F - 39 °F 69% 29.88 in 19 mi East 11.2 mph - -   Scattered Clouds
1:00 AM 46.4 °F 41.1 °F 39.2 °F 76% 29.86 in 6.2 mi East 11.5 mph - N/A   Partly Cloudy
1:30 AM 46.4 °F 41.1 °F 39.2 °F 76% 29.83 in 6.2 mi East 11.5 mph - N/A   Partly Cloudy
2:00 AM 46.4 °F 41.1 °F 41.0 °F 81% 29.83 in 6.2 mi East 11.5 mph - N/A   Scattered Clouds
2:30 AM 46.4 °F 41.1 °F 41.0 °F 81% 29.83 in 6.2 mi East 11.5 mph - N/A   Scattered Clouds
3:00 AM 48.2 °F - 41.0 °F 76% 29.83 in 6.2 mi East 9.2 mph - N/A   Scattered Clouds
3:30 AM 48.2 °F - 42.8 °F 82% 29.80 in 6.2 mi East 12.7 mph - N/A   Scattered Clouds
4:00 AM 49 °F - 42 °F 68% 29.80 in 16 mi East 17.9 mph - -   Partly Cloudy
4:00 AM 50.0 °F - 42.8 °F 76% 29.80 in 6.2 mi ESE 17.3 mph - N/A   Scattered Clouds
4:30 AM 50.0 °F - 42.8 °F 76% 29.80 in 6.2 mi ESE 16.1 mph - N/A   Scattered Clouds
5:00 AM 50.0 °F - 42.8 °F 76% 29.80 in 6.2 mi ESE 17.3 mph - N/A   Scattered Clouds
5:30 AM 50.0 °F - 42.8 °F 76% 29.80 in 6.2 mi ESE 16.1 mph - N/A   Scattered Clouds
6:00 AM 48.2 °F - 44.6 °F 87% 29.77 in 6.2 mi East 16.1 mph - N/A Rain Light Rain
6:30 AM 48.2 °F - 44.6 °F 87% 29.77 in 6.2 mi ESE 18.4 mph - N/A Rain Light Rain
7:00 AM 48 °F - 45 °F 84% 29.80 in 12 mi ESE 15.7 mph - -   Partly Cloudy
7:00 AM 48.2 °F - 44.6 °F 87% 29.80 in 6.2 mi ESE 13.8 mph - N/A   Scattered Clouds
7:30 AM 48.2 °F - 44.6 °F 87% 29.80 in 6.2 mi East 11.5 mph - N/A   Scattered Clouds
8:00 AM 48.2 °F - 44.6 °F 87% 29.80 in 6.2 mi East 13.8 mph - N/A Rain Light Rain
8:30 AM 48.2 °F - 44.6 °F 87% 29.80 in 6.2 mi East 13.8 mph - N/A Rain Light Rain
9:00 AM 48.2 °F - 44.6 °F 87% 29.80 in 6.2 mi East 13.8 mph - N/A Rain Light Rain
9:30 AM 50.0 °F - 46.4 °F 87% 29.80 in 6.2 mi East 12.7 mph - N/A   Scattered Clouds
10:00 AM 51 °F - 45 °F 72% 29.81 in 12 mi ESE 11.2 mph - - Rain Light Rain
10:00 AM 50.0 °F - 44.6 °F 82% 29.80 in 6.2 mi ESE 12.7 mph - N/A   Scattered Clouds
10:30 AM 50.0 °F - 46.4 °F 87% 29.77 in 5.0 mi ESE 13.8 mph - N/A Rain Light Rain
11:00 AM 51.8 °F - 46.4 °F 82% 29.77 in 6.2 mi East 12.7 mph - N/A   Scattered Clouds
11:30 AM 53.6 °F - 46.4 °F 77% 29.77 in 6.2 mi ESE 13.8 mph - N/A   Scattered Clouds
12:00 PM 53.6 °F - 44.6 °F 72% 29.77 in 6.2 mi ESE 13.8 mph - N/A   Mostly Cloudy
12:30 PM 51.8 °F - 48.2 °F 88% 29.77 in 6.2 mi ESE 15.0 mph - N/A Rain Light Rain
1:00 PM 52 °F - 47 °F 79% 29.78 in 9 mi ESE 15.7 mph - - Rain Light Rain
1:00 PM 51.8 °F - 46.4 °F 82% 29.77 in 6.2 mi ESE 13.8 mph - N/A   Mostly Cloudy
1:30 PM 51.8 °F - 48.2 °F 88% 29.77 in 6.2 mi ESE 9.2 mph - N/A   Mostly Cloudy
2:00 PM 53.6 °F - 48.2 °F 82% 29.77 in 6.2 mi SSE 5.8 mph - N/A   Mostly Cloudy
2:30 PM 48.2 °F - 46.4 °F 93% 29.80 in 4.3 mi NW 13.8 mph - N/A Rain Light Rain
3:00 PM 48.2 °F - 48.2 °F 100% 29.80 in 4.3 mi WNW 5.8 mph - N/A Rain Rain
3:30 PM 50.0 °F - 48.2 °F 94% 29.83 in 6.2 mi WSW 6.9 mph - N/A Rain Light Rain
4:00 PM 50 °F - 47 °F 88% 29.83 in 9 mi NW 6.7 mph - - Rain Light Rain
4:00 PM 50.0 °F - 48.2 °F 94% 29.83 in 6.2 mi WNW 8.1 mph - N/A   Mostly Cloudy
4:30 PM 50.0 °F - 46.4 °F 87% 29.83 in 6.2 mi WNW 9.2 mph - N/A   Mostly Cloudy
5:00 PM 50.0 °F - 46.4 °F 87% 29.83 in 6.2 mi WNW 8.1 mph - N/A   Mostly Cloudy
5:30 PM 50.0 °F - 46.4 °F 87% 29.86 in 6.2 mi WNW 5.8 mph - N/A   Mostly Cloudy
6:00 PM 50.0 °F - 44.6 °F 82% 29.89 in 6.2 mi WNW 5.8 mph - N/A   Mostly Cloudy
6:30 PM 48.2 °F - 44.6 °F 87% 29.89 in 6.2 mi WNW 5.8 mph - N/A   Scattered Clouds
7:00 PM 50 °F - 44 °F 73% 29.91 in 12 mi NW 8.9 mph - -   Scattered Clouds
7:00 PM 50.0 °F - 44.6 °F 82% 29.89 in 6.2 mi NW 9.2 mph - N/A   Partly Cloudy
7:30 PM 50.0 °F - 41.0 °F 71% 29.92 in 6.2 mi NW 11.5 mph - N/A   Partly Cloudy
8:00 PM 50.0 °F - 39.2 °F 66% 29.92 in 6.2 mi NNE 13.8 mph - N/A   Partly Cloudy
8:30 PM 51.8 °F - 35.6 °F 54% 29.92 in 6.2 mi NNE 23.0 mph 34.5 mph N/A   Partly Cloudy
9:00 PM 50.0 °F - 35.6 °F 58% 29.92 in - NNE 24.2 mph 39.1 mph N/A   Clear
9:30 PM 50.0 °F - 33.8 °F 54% 29.95 in - NE 25.3 mph - N/A   Clear
10:00 PM 50 °F - 34 °F 43% 29.97 in 16 mi NNE 24.6 mph - -   Scattered Clouds
10:00 PM 50.0 °F - 33.8 °F 54% 29.95 in - NNE 23.0 mph - N/A   Clear
10:30 PM 48.2 °F - 33.8 °F 58% 29.95 in - NNE 21.9 mph - N/A   Clear
11:00 PM 48.2 °F - 33.8 °F 58% 29.95 in - NNE 19.6 mph - N/A   Clear
11:30 PM 48.2 °F - 33.8 °F 58% 29.98 in - NNE 16.1 mph - N/A   Clear